Location: The Saddle
(36.8333°N, 80.3417°W)
Time: 06:26:14
(UTC-04:00)

XW-2D - Visible Passes

Search period start: 12 September 2024 00:00
Search period end: 22 September 2024 00:00
Orbit: 372 x 375 km, 97.5° (Epoch: 12 September)

Date Brightness Start Highest point End Pass type
(mag) Time Alt. Az. Time Alt. Az. Time Alt. Az.
13 Sep ? 20:20:33 10° S 20:23:24 51° W 20:26:18 10° NNW visible
14 Sep ? 20:53:55 10° SW 20:55:48 16° W 20:57:41 10° NW visible
15 Sep ? 19:53:49 10° SSE 19:56:38 47° ENE 19:59:29 10° N visible
16 Sep ? 20:25:34 10° S 20:28:22 43° W 20:31:12 10° NNW visible
17 Sep ? 20:58:18 10° SW 20:59:57 14° W 21:01:37 10° WNW visible
18 Sep ? 19:57:09 10° SSE 20:00:01 53° ENE 20:02:52 10° N visible
19 Sep ? 20:28:09 10° S 20:30:55 40° W 20:33:42 10° NNW visible
20 Sep ? 21:00:07 10° SW 21:01:41 14° W 21:03:16 10° WNW visible
21 Sep ? 19:58:08 10° SSE 20:00:58 53° ENE 20:03:49 10° N visible
